Location: LDNL
(36.4545°S, 141.6685°E)
Time: 12:57:56
(UTC+11:00)

Courier 1B Rocket - Pass Details

Date: 05 February 2023
Orbit: 920 x 1202 km, 28.2° (Epoch: 25 March)

Event Time Altitude Azimuth Distance (km) Brightness Sun altitude
Rises 06:03:58 0° 296° (WNW) 4,028 - -9.9°
Reaches altitude 10° 06:06:54 10° 303° (WNW) 3,095 - -9.4°
Exits shadow 06:07:07 11° 303° (WNW) 3,028 6.9 -9.3°
Maximum altitude 06:14:05 42° 10° (N) 1,656 6.1 -8.1°
Drops below altitude 10° 06:21:21 10° 77° (ENE) 3,135 8.5 -6.8°
Sets 06:24:21 0° 84° (E) 4,084 9.4 -6.2°
